Time,TemperatureF,DewpointF,PressureIn,WindDirection,WindDirectionDegrees,WindSpeedMPH,WindSpeedGustMPH,Humidity,HourlyPrecipIn,Conditions,Clouds,dailyrainin,SoftwareType,DateUTC
2013-02-21 00:00:00,28.1,11.4,30.26,SSE,148,2.0,5.0,49,0.00,,,0.00,Wunderground v.1.15,2013-02-21 05:00:00,
2013-02-21 00:10:00,28.3,11.6,30.27,South,182,4.0,4.0,49,0.00,,,0.00,Wunderground v.1.15,2013-02-21 05:10:00,
2013-02-21 00:15:00,28.3,11.1,30.28,South,191,4.0,6.0,48,0.00,,,0.00,Wunderground v.1.15,2013-02-21 05:15:00,
2013-02-21 00:20:00,28.3,11.6,30.27,SSW,209,4.0,5.0,49,0.00,,,0.00,Wunderground v.1.15,2013-02-21 05:20:00,
2013-02-21 00:25:00,28.3,11.6,30.27,SSW,196,3.0,5.0,49,0.00,,,0.00,Wunderground v.1.15,2013-02-21 05:25:00,
2013-02-21 00:30:00,28.4,11.6,30.27,SE,142,3.0,5.0,49,0.00,,,0.00,Wunderground v.1.15,2013-02-21 05:30:00,
2013-02-21 00:40:00,28.3,11.6,30.27,South,169,3.0,5.0,49,0.00,,,0.00,Wunderground v.1.15,2013-02-21 05:40:00,
2013-02-21 00:45:00,28.3,11.6,30.27,ESE,120,2.0,5.0,49,0.00,,,0.00,Wunderground v.1.15,2013-02-21 05:45:00,
2013-02-21 00:55:00,28.3,11.6,30.26,SSW,203,2.0,3.0,49,0.00,,,0.00,Wunderground v.1.15,2013-02-21 05:55:00,
2013-02-21 01:00:00,28.3,11.6,30.26,South,186,2.0,5.0,49,0.00,,,0.00,Wunderground v.1.15,2013-02-21 06:00:00,
2013-02-21 01:05:00,28.3,11.6,30.26,South,172,3.0,5.0,49,0.00,,,0.00,Wunderground v.1.15,2013-02-21 06:05:00,
2013-02-21 01:10:00,28.3,11.6,30.26,South,170,3.0,3.0,49,0.00,,,0.00,Wunderground v.1.15,2013-02-21 06:10:00,
2013-02-21 01:15:00,28.3,11.6,30.26,South,173,3.0,5.0,49,0.00,,,0.00,Wunderground v.1.15,2013-02-21 06:15:00,
2013-02-21 01:20:00,28.4,11.2,30.26,SE,146,3.0,3.0,48,0.00,,,0.00,Wunderground v.1.15,2013-02-21 06:20:00,
2013-02-21 01:25:00,28.3,11.1,30.26,ESE,120,2.0,4.0,48,0.00,,,0.00,Wunderground v.1.15,2013-02-21 06:25:00,
2013-02-21 01:30:00,28.3,11.6,30.26,SSE,147,2.0,5.0,49,0.00,,,0.00,Wunderground v.1.15,2013-02-21 06:30:00,
2013-02-21 01:35:00,28.4,11.6,30.26,ESE,117,3.0,5.0,49,0.00,,,0.00,Wunderground v.1.15,2013-02-21 06:35:00,
2013-02-21 01:40:00,28.4,11.6,30.26,South,172,3.0,3.0,49,0.00,,,0.00,Wunderground v.1.15,2013-02-21 06:40:00,
2013-02-21 01:45:00,28.5,11.7,30.26,South,182,3.0,5.0,49,0.00,,,0.00,Wunderground v.1.15,2013-02-21 06:45:00,
2013-02-21 01:50:00,28.6,11.8,30.27,South,171,2.0,2.0,49,0.00,,,0.00,Wunderground v.1.15,2013-02-21 06:50:00,
2013-02-21 01:55:00,28.6,11.8,30.27,SSE,165,2.0,5.0,49,0.00,,,0.00,Wunderground v.1.15,2013-02-21 06:55:00,
2013-02-21 02:00:00,28.7,11.9,30.27,SSE,165,1.0,5.0,49,0.00,,,0.00,Wunderground v.1.15,2013-02-21 07:00:00,
2013-02-21 02:10:00,28.7,12.4,30.28,SSE,165,0.0,5.0,50,0.00,,,0.00,Wunderground v.1.15,2013-02-21 07:10:00,
2013-02-21 02:15:00,28.7,11.9,30.27,SW,218,0.0,5.0,49,0.00,,,0.00,Wunderground v.1.15,2013-02-21 07:15:00,
2013-02-21 02:20:00,28.7,12.4,30.27,SW,218,0.0,5.0,50,0.00,,,0.00,Wunderground v.1.15,2013-02-21 07:20:00,
2013-02-21 02:25:00,28.7,12.8,30.28,SW,218,0.0,5.0,51,0.00,,,0.00,Wunderground v.1.15,2013-02-21 07:25:00,
2013-02-21 02:30:00,28.6,12.7,30.28,SW,218,0.0,5.0,51,0.00,,,0.00,Wunderground v.1.15,2013-02-21 07:30:00,
2013-02-21 02:35:00,28.5,12.2,30.28,South,177,0.0,5.0,50,0.00,,,0.00,Wunderground v.1.15,2013-02-21 07:35:00,
2013-02-21 02:40:00,28.5,12.2,30.28,South,177,0.0,5.0,50,0.00,,,0.00,Wunderground v.1.15,2013-02-21 07:40:00,
2013-02-21 02:45:00,28.3,12.5,30.29,South,177,1.0,5.0,51,0.00,,,0.00,Wunderground v.1.15,2013-02-21 07:45:00,
2013-02-21 02:50:00,28.1,12.3,30.28,South,177,1.0,1.0,51,0.00,,,0.00,Wunderground v.1.15,2013-02-21 07:50:00,
2013-02-21 02:55:00,27.9,12.1,30.28,South,177,1.0,5.0,51,0.00,,,0.00,Wunderground v.1.15,2013-02-21 07:55:00,
2013-02-21 03:00:00,27.7,12.8,30.28,South,177,1.0,1.0,53,0.00,,,0.00,Wunderground v.1.15,2013-02-21 08:00:00,
2013-02-21 03:05:00,27.5,12.6,30.28,South,177,1.0,5.0,53,0.00,,,0.00,Wunderground v.1.15,2013-02-21 08:05:00,
2013-02-21 03:10:00,27.4,12.5,30.28,South,177,1.0,1.0,53,0.00,,,0.00,Wunderground v.1.15,2013-02-21 08:10:00,
2013-02-21 03:15:00,27.3,13.2,30.28,South,177,0.0,5.0,55,0.00,,,0.00,Wunderground v.1.15,2013-02-21 08:15:00,
2013-02-21 03:20:00,27.1,12.6,30.28,South,177,0.0,5.0,54,0.00,,,0.00,Wunderground v.1.15,2013-02-21 08:20:00,
2013-02-21 03:25:00,27.0,12.5,30.28,South,177,0.0,5.0,54,0.00,,,0.00,Wunderground v.1.15,2013-02-21 08:25:00,
2013-02-21 03:30:00,27.0,13.4,30.27,South,177,0.0,5.0,56,0.00,,,0.00,Wunderground v.1.15,2013-02-21 08:30:00,
2013-02-21 03:40:00,27.3,12.8,30.28,South,177,1.0,5.0,54,0.00,,,0.00,Wunderground v.1.15,2013-02-21 08:40:00,
2013-02-21 03:45:00,27.5,13.0,30.27,South,177,1.0,5.0,54,0.00,,,0.00,Wunderground v.1.15,2013-02-21 08:45:00,
2013-02-21 03:50:00,27.7,12.3,30.27,South,173,1.0,1.0,52,0.00,,,0.00,Wunderground v.1.15,2013-02-21 08:50:00,
2013-02-21 03:55:00,28.0,12.2,30.27,ESE,121,1.0,2.0,51,0.00,,,0.00,Wunderground v.1.15,2013-02-21 08:55:00,
2013-02-21 04:01:00,28.3,12.0,30.27,East,88,2.0,5.0,50,0.00,,,0.00,Wunderground v.1.15,2013-02-21 09:01:00,
2013-02-21 04:05:00,28.5,12.2,30.27,South,182,2.0,5.0,50,0.00,,,0.00,Wunderground v.1.15,2013-02-21 09:05:00,
2013-02-21 04:10:00,28.9,12.1,30.27,ESE,105,2.0,2.0,49,0.00,,,0.00,Wunderground v.1.15,2013-02-21 09:10:00,
2013-02-21 04:15:00,29.0,11.7,30.27,SW,221,2.0,5.0,48,0.00,,,0.00,Wunderground v.1.15,2013-02-21 09:15:00,
2013-02-21 04:20:00,28.9,11.6,30.27,ESE,102,1.0,5.0,48,0.00,,,0.00,Wunderground v.1.15,2013-02-21 09:20:00,
2013-02-21 04:25:00,28.9,11.6,30.27,SSE,148,1.0,5.0,48,0.00,,,0.00,Wunderground v.1.15,2013-02-21 09:25:00,
2013-02-21 04:30:00,29.0,11.7,30.27,South,171,2.0,5.0,48,0.00,,,0.00,Wunderground v.1.15,2013-02-21 09:30:00,
2013-02-21 04:35:00,29.1,12.3,30.27,South,171,2.0,5.0,49,0.00,,,0.00,Wunderground v.1.15,2013-02-21 09:35:00,
2013-02-21 04:40:00,29.0,12.2,30.27,South,190,2.0,5.0,49,0.00,,,0.00,Wunderground v.1.15,2013-02-21 09:40:00,
2013-02-21 04:50:00,29.2,13.3,30.27,South,178,2.0,2.0,51,0.00,,,0.00,Wunderground v.1.15,2013-02-21 09:50:00,
2013-02-21 04:55:00,29.1,13.2,30.28,South,178,1.0,5.0,51,0.00,,,0.00,Wunderground v.1.15,2013-02-21 09:55:00,
2013-02-21 05:00:00,28.5,13.1,30.28,South,180,1.0,5.0,52,0.00,,,0.00,Wunderground v.1.15,2013-02-21 10:00:00,
2013-02-21 05:05:00,28.0,13.1,30.28,South,180,1.0,5.0,53,0.00,,,0.00,Wunderground v.1.15,2013-02-21 10:05:00,
2013-02-21 05:15:00,27.4,13.3,30.29,South,180,0.0,5.0,55,0.00,,,0.00,Wunderground v.1.15,2013-02-21 10:15:00,
2013-02-21 05:20:00,27.1,13.1,30.29,South,180,0.0,5.0,55,0.00,,,0.00,Wunderground v.1.15,2013-02-21 10:20:00,
2013-02-21 05:25:00,27.2,12.3,30.29,South,180,0.0,5.0,53,0.00,,,0.00,Wunderground v.1.15,2013-02-21 10:25:00,
2013-02-21 05:30:00,27.8,12.0,30.29,South,180,0.0,5.0,51,0.00,,,0.00,Wunderground v.1.15,2013-02-21 10:30:00,
2013-02-21 05:40:00,27.8,12.9,30.29,South,180,0.0,5.0,53,0.00,,,0.00,Wunderground v.1.15,2013-02-21 10:40:00,
2013-02-21 05:45:00,27.6,13.9,30.30,South,180,0.0,5.0,56,0.00,,,0.00,Wunderground v.1.15,2013-02-21 10:45:00,
2013-02-21 05:50:00,27.4,13.3,30.29,South,180,0.0,5.0,55,0.00,,,0.00,Wunderground v.1.15,2013-02-21 10:50:00,
2013-02-21 05:55:00,27.2,12.7,30.29,South,180,0.0,5.0,54,0.00,,,0.00,Wunderground v.1.15,2013-02-21 10:55:00,
2013-02-21 06:00:00,26.9,13.3,30.30,South,180,0.0,5.0,56,0.00,,,0.00,Wunderground v.1.15,2013-02-21 11:00:00,
2013-02-21 06:05:00,26.7,13.1,30.30,South,180,0.0,5.0,56,0.00,,,0.00,Wunderground v.1.15,2013-02-21 11:05:00,
2013-02-21 06:10:00,26.5,13.3,30.30,South,180,0.0,5.0,57,0.00,,,0.00,Wunderground v.1.15,2013-02-21 11:10:00,
2013-02-21 06:15:00,26.3,13.5,30.30,South,180,0.0,5.0,58,0.00,,,0.00,Wunderground v.1.15,2013-02-21 11:15:00,
2013-02-21 06:20:00,26.3,13.5,30.30,South,180,0.0,5.0,58,0.00,,,0.00,Wunderground v.1.15,2013-02-21 11:20:00,
2013-02-21 06:25:00,26.4,12.4,30.30,South,180,0.0,5.0,55,0.00,,,0.00,Wunderground v.1.15,2013-02-21 11:25:00,
2013-02-21 06:30:00,27.0,12.1,30.30,South,180,0.0,5.0,53,0.00,,,0.00,Wunderground v.1.15,2013-02-21 11:30:00,
2013-02-21 06:35:00,27.5,12.2,30.30,South,180,0.0,5.0,52,0.00,,,0.00,Wunderground v.1.15,2013-02-21 11:35:00,
2013-02-21 06:40:00,27.9,11.6,30.31,South,180,0.0,5.0,50,0.00,,,0.00,Wunderground v.1.15,2013-02-21 11:40:00,
2013-02-21 06:45:00,28.2,12.4,30.31,South,180,0.0,5.0,51,0.00,,,0.00,Wunderground v.1.15,2013-02-21 11:45:00,
2013-02-21 06:50:00,28.6,10.9,30.31,South,180,0.0,5.0,47,0.00,,,0.00,Wunderground v.1.15,2013-02-21 11:50:00,
2013-02-21 06:55:00,28.9,10.7,30.31,South,180,0.0,5.0,46,0.00,,,0.00,Wunderground v.1.15,2013-02-21 11:55:00,
2013-02-21 07:01:00,29.3,10.1,30.31,South,180,0.0,5.0,44,0.00,,,0.00,Wunderground v.1.15,2013-02-21 12:01:00,
2013-02-21 07:10:00,29.6,10.8,30.32,South,180,0.0,5.0,45,0.00,,,0.00,Wunderground v.1.15,2013-02-21 12:10:00,
2013-02-21 07:15:00,29.6,10.3,30.32,South,178,0.0,5.0,44,0.00,,,0.00,Wunderground v.1.15,2013-02-21 12:15:00,
2013-02-21 07:20:00,29.7,9.4,30.32,South,185,1.0,5.0,42,0.00,,,0.00,Wunderground v.1.15,2013-02-21 12:20:00,
2013-02-21 07:25:00,30.0,9.6,30.32,South,185,1.0,5.0,42,0.00,,,0.00,Wunderground v.1.15,2013-02-21 12:25:00,
2013-02-21 07:35:00,30.3,8.3,30.32,South,188,0.0,5.0,39,0.00,,,0.00,Wunderground v.1.15,2013-02-21 12:35:00,
2013-02-21 07:40:00,30.7,9.2,30.31,South,182,1.0,5.0,40,0.00,,,0.00,Wunderground v.1.15,2013-02-21 12:40:00,
2013-02-21 07:45:00,30.9,9.9,30.32,South,188,1.0,5.0,41,0.00,,,0.00,Wunderground v.1.15,2013-02-21 12:45:00,
2013-02-21 07:50:00,30.7,11.8,30.32,SSE,168,1.0,5.0,45,0.00,,,0.00,Wunderground v.1.15,2013-02-21 12:50:00,
2013-02-21 07:55:00,30.5,10.1,30.32,SW,220,1.0,5.0,42,0.00,,,0.00,Wunderground v.1.15,2013-02-21 12:55:00,
2013-02-21 08:01:00,30.5,10.1,30.32,SW,220,0.0,5.0,42,0.00,,,0.00,Wunderground v.1.15,2013-02-21 13:01:00,
2013-02-21 08:10:00,29.3,14.3,30.33,SSW,194,0.0,5.0,53,0.00,,,0.00,Wunderground v.1.15,2013-02-21 13:10:00,
2013-02-21 08:15:00,28.4,13.4,30.33,SSW,194,0.0,5.0,53,0.00,,,0.00,Wunderground v.1.15,2013-02-21 13:15:00,
2013-02-21 08:20:00,27.8,13.3,30.33,SSW,194,0.0,5.0,54,0.00,,,0.00,Wunderground v.1.15,2013-02-21 13:20:00,
2013-02-21 08:25:00,27.6,13.9,30.34,SSW,194,0.0,5.0,56,0.00,,,0.00,Wunderground v.1.15,2013-02-21 13:25:00,
2013-02-21 08:30:00,27.3,13.7,30.34,SSW,194,0.0,5.0,56,0.00,,,0.00,Wunderground v.1.15,2013-02-21 13:30:00,
2013-02-21 08:35:00,27.1,13.9,30.34,SSW,194,1.0,5.0,57,0.00,,,0.00,Wunderground v.1.15,2013-02-21 13:35:00,
2013-02-21 08:40:00,27.0,13.8,30.34,SSW,194,0.0,5.0,57,0.00,,,0.00,Wunderground v.1.15,2013-02-21 13:40:00,
2013-02-21 08:45:00,27.1,13.5,30.34,SSW,194,0.0,5.0,56,0.00,,,0.00,Wunderground v.1.15,2013-02-21 13:45:00,
2013-02-21 08:50:00,27.3,13.7,30.35,SSW,194,0.0,5.0,56,0.00,,,0.00,Wunderground v.1.15,2013-02-21 13:50:00,
2013-02-21 08:55:00,27.6,13.9,30.35,SSW,194,0.0,5.0,56,0.00,,,0.00,Wunderground v.1.15,2013-02-21 13:55:00,
2013-02-21 09:00:00,28.3,14.2,30.35,SSW,194,0.0,5.0,55,0.00,,,0.00,Wunderground v.1.15,2013-02-21 14:00:00,
2013-02-21 09:10:00,30.2,10.9,30.35,SSE,161,0.0,5.0,44,0.00,,,0.00,Wunderground v.1.15,2013-02-21 14:10:00,
2013-02-21 09:15:00,31.5,10.5,30.35,SSE,161,0.0,5.0,41,0.00,,,0.00,Wunderground v.1.15,2013-02-21 14:15:00,
2013-02-21 09:20:00,32.7,11.0,30.35,SSE,161,0.0,5.0,40,0.00,,,0.00,Wunderground v.1.15,2013-02-21 14:20:00,
2013-02-21 09:25:00,33.7,13.0,30.35,SSE,161,0.0,5.0,42,0.00,,,0.00,Wunderground v.1.15,2013-02-21 14:25:00,
2013-02-21 09:30:00,34.4,13.6,30.35,SSE,161,0.0,5.0,42,0.00,,,0.00,Wunderground v.1.15,2013-02-21 14:30:00,
2013-02-21 09:35:00,35.2,12.7,30.35,SSE,161,0.0,5.0,39,0.00,,,0.00,Wunderground v.1.15,2013-02-21 14:35:00,
2013-02-21 09:40:00,36.6,12.7,30.35,SSE,161,0.0,5.0,37,0.00,,,0.00,Wunderground v.1.15,2013-02-21 14:40:00,
2013-02-21 09:45:00,37.9,14.5,30.35,SSE,161,1.0,5.0,38,0.00,,,0.00,Wunderground v.1.15,2013-02-21 14:45:00,
2013-02-21 09:50:00,37.8,15.6,30.35,SSE,161,1.0,1.0,40,0.00,,,0.00,Wunderground v.1.15,2013-02-21 14:50:00,
2013-02-21 09:55:00,38.4,15.0,30.35,SSE,161,0.0,5.0,38,0.00,,,0.00,Wunderground v.1.15,2013-02-21 14:55:00,
2013-02-21 10:00:00,39.1,15.6,30.35,SSE,161,0.0,5.0,38,0.00,,,0.00,Wunderground v.1.15,2013-02-21 15:00:00,
2013-02-21 10:05:00,39.2,15.1,30.35,SSE,161,0.0,5.0,37,0.00,,,0.00,Wunderground v.1.15,2013-02-21 15:05:00,
2013-02-21 10:10:00,40.1,13.3,30.35,SSE,161,0.0,5.0,33,0.00,,,0.00,Wunderground v.1.15,2013-02-21 15:10:00,
2013-02-21 10:15:00,40.7,10.1,30.35,SSE,163,1.0,5.0,28,0.00,,,0.00,Wunderground v.1.15,2013-02-21 15:15:00,
2013-02-21 10:20:00,41.8,9.4,30.35,SSE,164,1.0,5.0,26,0.00,,,0.00,Wunderground v.1.15,2013-02-21 15:20:00,
2013-02-21 10:25:00,42.3,6.1,30.34,NW,312,1.0,5.0,22,0.00,,,0.00,Wunderground v.1.15,2013-02-21 15:25:00,
2013-02-21 10:30:00,42.3,6.1,30.34,NNE,31,1.0,5.0,22,0.00,,,0.00,Wunderground v.1.15,2013-02-21 15:30:00,
2013-02-21 10:35:00,42.5,4.2,30.34,NE,51,2.0,5.0,20,0.00,,,0.00,Wunderground v.1.15,2013-02-21 15:35:00,
2013-02-21 10:40:00,43.0,4.6,30.34,East,79,2.0,5.0,20,0.00,,,0.00,Wunderground v.1.15,2013-02-21 15:40:00,
2013-02-21 10:45:00,43.6,5.1,30.34,NE,53,1.0,5.0,20,0.00,,,0.00,Wunderground v.1.15,2013-02-21 15:45:00,
2013-02-21 10:50:00,44.3,5.7,30.34,ENE,75,1.0,1.0,20,0.00,,,0.00,Wunderground v.1.15,2013-02-21 15:50:00,
2013-02-21 11:00:00,45.4,7.7,30.33,SW,219,1.0,5.0,21,0.00,,,0.00,Wunderground v.1.15,2013-02-21 16:00:00,
2013-02-21 11:05:00,45.1,8.5,30.33,WNW,286,1.0,5.0,22,0.00,,,0.00,Wunderground v.1.15,2013-02-21 16:05:00,
2013-02-21 11:10:00,45.3,7.6,30.33,WSW,239,2.0,5.0,21,0.00,,,0.00,Wunderground v.1.15,2013-02-21 16:10:00,
2013-02-21 11:15:00,45.5,7.8,30.33,North,360,2.0,5.0,21,0.00,,,0.00,Wunderground v.1.15,2013-02-21 16:15:00,
2013-02-21 11:20:00,45.8,9.0,30.33,NE,55,2.0,5.0,22,0.00,,,0.00,Wunderground v.1.15,2013-02-21 16:20:00,
2013-02-21 11:25:00,46.1,9.3,30.33,NNE,25,2.0,5.0,22,0.00,,,0.00,Wunderground v.1.15,2013-02-21 16:25:00,
2013-02-21 11:30:00,46.1,10.3,30.32,NE,52,1.0,1.0,23,0.00,,,0.00,Wunderground v.1.15,2013-02-21 16:30:00,
2013-02-21 11:35:00,46.7,11.8,30.32,NE,46,1.0,5.0,24,0.00,,,0.00,Wunderground v.1.15,2013-02-21 16:35:00,
2013-02-21 11:40:00,47.8,10.7,30.32,NNE,24,1.0,5.0,22,0.00,,,0.00,Wunderground v.1.15,2013-02-21 16:40:00,
2013-02-21 11:45:00,47.4,11.4,30.32,ESE,111,1.0,5.0,23,0.00,,,0.00,Wunderground v.1.15,2013-02-21 16:45:00,
2013-02-21 11:50:00,47.9,11.8,30.32,SW,234,1.0,5.0,23,0.00,,,0.00,Wunderground v.1.15,2013-02-21 16:50:00,
2013-02-21 11:55:00,48.8,11.6,30.32,SSE,156,1.0,5.0,22,0.00,,,0.00,Wunderground v.1.15,2013-02-21 16:55:00,
2013-02-21 12:01:00,49.3,9.9,30.31,ESE,107,2.0,2.0,20,0.00,,,0.00,Wunderground v.1.15,2013-02-21 17:01:00,
2013-02-21 12:05:00,50.0,13.6,30.31,SW,221,2.0,5.0,23,0.00,,,0.00,Wunderground v.1.15,2013-02-21 17:05:00,
2013-02-21 12:10:00,50.5,10.9,30.30,SE,144,1.0,5.0,20,0.00,,,0.00,Wunderground v.1.15,2013-02-21 17:10:00,
2013-02-21 12:20:00,51.6,11.8,30.30,South,175,1.0,5.0,20,0.00,,,0.00,Wunderground v.1.15,2013-02-21 17:20:00,
2013-02-21 12:25:00,51.5,11.7,30.29,South,182,2.0,5.0,20,0.00,,,0.00,Wunderground v.1.15,2013-02-21 17:25:00,
2013-02-21 12:35:00,51.7,11.9,30.28,South,187,1.0,5.0,20,0.00,,,0.00,Wunderground v.1.15,2013-02-21 17:35:00,
2013-02-21 12:40:00,51.2,11.4,30.28,ENE,78,2.0,2.0,20,0.00,,,0.00,Wunderground v.1.15,2013-02-21 17:40:00,
2013-02-21 12:45:00,51.1,12.5,30.28,SSE,157,2.0,5.0,21,0.00,,,0.00,Wunderground v.1.15,2013-02-21 17:45:00,
2013-02-21 12:50:00,51.5,11.7,30.28,South,184,2.0,5.0,20,0.00,,,0.00,Wunderground v.1.15,2013-02-21 17:50:00,
2013-02-21 12:55:00,51.5,12.8,30.28,South,177,2.0,5.0,21,0.00,,,0.00,Wunderground v.1.15,2013-02-21 17:55:00,
2013-02-21 13:00:00,52.2,13.4,30.27,SSE,161,2.0,5.0,21,0.00,,,0.00,Wunderground v.1.15,2013-02-21 18:00:00,
2013-02-21 13:10:00,52.2,13.4,30.26,ENE,61,2.0,2.0,21,0.00,,,0.00,Wunderground v.1.15,2013-02-21 18:10:00,
2013-02-21 13:15:00,52.8,13.9,30.26,SSE,150,2.0,5.0,21,0.00,,,0.00,Wunderground v.1.15,2013-02-21 18:15:00,
2013-02-21 13:20:00,53.5,14.5,30.25,ESE,115,1.0,5.0,21,0.00,,,0.00,Wunderground v.1.15,2013-02-21 18:20:00,
2013-02-21 13:25:00,54.2,12.8,30.25,SSW,194,2.0,5.0,19,0.00,,,0.00,Wunderground v.1.15,2013-02-21 18:25:00,
2013-02-21 13:30:00,54.0,12.6,30.25,East,96,2.0,5.0,19,0.00,,,0.00,Wunderground v.1.15,2013-02-21 18:30:00,
2013-02-21 13:35:00,53.4,12.1,30.25,SSW,213,2.0,5.0,19,0.00,,,0.00,Wunderground v.1.15,2013-02-21 18:35:00,
2013-02-21 13:40:00,53.8,13.6,30.24,SSW,211,2.0,5.0,20,0.00,,,0.00,Wunderground v.1.15,2013-02-21 18:40:00,
2013-02-21 13:45:00,54.0,12.6,30.24,South,186,2.0,5.0,19,0.00,,,0.00,Wunderground v.1.15,2013-02-21 18:45:00,
2013-02-21 13:55:00,54.2,10.3,30.23,NNE,16,2.0,5.0,17,0.00,,,0.00,Wunderground v.1.15,2013-02-21 18:55:00,
2013-02-21 14:00:00,54.4,11.7,30.23,SW,223,2.0,5.0,18,0.00,,,0.00,Wunderground v.1.15,2013-02-21 19:00:00,
2013-02-21 14:10:00,55.9,11.6,30.23,SW,230,3.0,5.0,17,0.00,,,0.00,Wunderground v.1.15,2013-02-21 19:10:00,
2013-02-21 14:15:00,56.2,10.5,30.22,South,174,3.0,5.0,16,0.00,,,0.00,Wunderground v.1.15,2013-02-21 19:15:00,
2013-02-21 14:20:00,56.0,10.4,30.22,SE,141,3.0,3.0,16,0.00,,,0.00,Wunderground v.1.15,2013-02-21 19:20:00,
2013-02-21 14:25:00,56.1,10.4,30.22,NW,325,2.0,5.0,16,0.00,,,0.00,Wunderground v.1.15,2013-02-21 19:25:00,
2013-02-21 14:30:00,56.4,10.7,30.22,SSW,197,2.0,2.0,16,0.00,,,0.00,Wunderground v.1.15,2013-02-21 19:30:00,
2013-02-21 14:35:00,56.4,9.2,30.22,ENE,74,2.0,5.0,15,0.00,,,0.00,Wunderground v.1.15,2013-02-21 19:35:00,
2013-02-21 14:40:00,55.9,8.8,30.23,South,181,2.0,2.0,15,0.00,,,0.00,Wunderground v.1.15,2013-02-21 19:40:00,
2013-02-21 14:45:00,55.9,8.8,30.23,NNE,25,2.0,5.0,15,0.00,,,0.00,Wunderground v.1.15,2013-02-21 19:45:00,
2013-02-21 14:50:00,56.4,9.2,30.23,ESE,113,2.0,5.0,15,0.00,,,0.00,Wunderground v.1.15,2013-02-21 19:50:00,
2013-02-21 14:55:00,56.7,9.5,30.23,SSW,192,2.0,5.0,15,0.00,,,0.00,Wunderground v.1.15,2013-02-21 19:55:00,
2013-02-21 15:00:00,56.9,9.6,30.23,South,182,2.0,5.0,15,0.00,,,0.00,Wunderground v.1.15,2013-02-21 20:00:00,
2013-02-21 15:05:00,57.2,8.3,30.23,SW,232,1.0,5.0,14,0.00,,,0.00,Wunderground v.1.15,2013-02-21 20:05:00,
2013-02-21 15:10:00,57.2,6.7,30.24,SE,126,2.0,2.0,13,0.00,,,0.00,Wunderground v.1.15,2013-02-21 20:10:00,
2013-02-21 15:15:00,57.1,9.8,30.24,SE,134,2.0,5.0,15,0.00,,,0.00,Wunderground v.1.15,2013-02-21 20:15:00,
2013-02-21 15:20:00,57.4,12.9,30.24,South,182,2.0,6.0,17,0.00,,,0.00,Wunderground v.1.15,2013-02-21 20:20:00,
2013-02-21 15:25:00,57.4,14.2,30.23,SSW,196,2.0,6.0,18,0.00,,,0.00,Wunderground v.1.15,2013-02-21 20:25:00,
2013-02-21 15:30:00,57.2,14.0,30.23,NNE,23,2.0,2.0,18,0.00,,,0.00,Wunderground v.1.15,2013-02-21 20:30:00,
2013-02-21 15:35:00,57.4,14.2,30.23,SSW,200,1.0,5.0,18,0.00,,,0.00,Wunderground v.1.15,2013-02-21 20:35:00,
2013-02-21 15:40:00,57.4,14.2,30.22,SE,136,1.0,5.0,18,0.00,,,0.00,Wunderground v.1.15,2013-02-21 20:40:00,
2013-02-21 15:45:00,57.6,14.3,30.22,SSW,205,2.0,5.0,18,0.00,,,0.00,Wunderground v.1.15,2013-02-21 20:45:00,
2013-02-21 15:50:00,57.5,16.7,30.22,SW,236,2.0,5.0,20,0.00,,,0.00,Wunderground v.1.15,2013-02-21 20:50:00,
2013-02-21 15:55:00,57.7,16.8,30.22,SE,144,1.0,5.0,20,0.00,,,0.00,Wunderground v.1.15,2013-02-21 20:55:00,
2013-02-21 16:00:00,57.3,17.6,30.22,WSW,252,1.0,1.0,21,0.00,,,0.00,Wunderground v.1.15,2013-02-21 21:00:00,
2013-02-21 16:10:00,56.7,19.3,30.21,South,173,2.0,5.0,23,0.00,,,0.00,Wunderground v.1.15,2013-02-21 21:10:00,
2013-02-21 16:15:00,56.4,19.0,30.22,SW,227,2.0,5.0,23,0.00,,,0.00,Wunderground v.1.15,2013-02-21 21:15:00,
2013-02-21 16:20:00,56.1,18.8,30.22,WSW,248,1.0,5.0,23,0.00,,,0.00,Wunderground v.1.15,2013-02-21 21:20:00,
2013-02-21 16:25:00,55.7,18.4,30.22,ESE,119,2.0,5.0,23,0.00,,,0.00,Wunderground v.1.15,2013-02-21 21:25:00,
2013-02-21 16:30:00,55.2,18.0,30.22,NE,40,2.0,2.0,23,0.00,,,0.00,Wunderground v.1.15,2013-02-21 21:30:00,
2013-02-21 16:35:00,54.8,17.7,30.22,ENE,62,1.0,5.0,23,0.00,,,0.00,Wunderground v.1.15,2013-02-21 21:35:00,
2013-02-21 16:40:00,54.6,16.5,30.22,ESE,121,1.0,1.0,22,0.00,,,0.00,Wunderground v.1.15,2013-02-21 21:40:00,
2013-02-21 16:50:00,54.4,17.3,30.21,WSW,246,1.0,1.0,23,0.00,,,0.00,Wunderground v.1.15,2013-02-21 21:50:00,
2013-02-21 16:55:00,54.4,17.3,30.22,SSE,167,0.0,5.0,23,0.00,,,0.00,Wunderground v.1.15,2013-02-21 21:55:00,
2013-02-21 17:00:00,54.2,17.1,30.22,South,182,1.0,1.0,23,0.00,,,0.00,Wunderground v.1.15,2013-02-21 22:00:00,
2013-02-21 17:05:00,54.1,16.0,30.21,NE,44,1.0,5.0,22,0.00,,,0.00,Wunderground v.1.15,2013-02-21 22:05:00,
2013-02-21 17:10:00,53.8,16.8,30.21,SE,140,1.0,1.0,23,0.00,,,0.00,Wunderground v.1.15,2013-02-21 22:10:00,
2013-02-21 17:15:00,53.5,16.6,30.21,ESE,116,1.0,5.0,23,0.00,,,0.00,Wunderground v.1.15,2013-02-21 22:15:00,
2013-02-21 17:20:00,53.3,17.4,30.22,SW,235,1.0,5.0,24,0.00,,,0.00,Wunderground v.1.15,2013-02-21 22:20:00,
2013-02-21 17:25:00,53.1,17.2,30.21,East,92,1.0,5.0,24,0.00,,,0.00,Wunderground v.1.15,2013-02-21 22:25:00,
2013-02-21 17:30:00,52.8,17.9,30.22,ESE,110,1.0,5.0,25,0.00,,,0.00,Wunderground v.1.15,2013-02-21 22:30:00,
2013-02-21 17:40:00,52.1,17.3,30.23,SW,224,1.0,5.0,25,0.00,,,0.00,Wunderground v.1.15,2013-02-21 22:40:00,
2013-02-21 17:45:00,51.8,18.0,30.23,SE,138,1.0,5.0,26,0.00,,,0.00,Wunderground v.1.15,2013-02-21 22:45:00,
2013-02-21 17:50:00,51.5,17.7,30.23,SSW,200,1.0,5.0,26,0.00,,,0.00,Wunderground v.1.15,2013-02-21 22:50:00,
2013-02-21 17:55:00,51.2,18.3,30.23,WSW,239,1.0,5.0,27,0.00,,,0.00,Wunderground v.1.15,2013-02-21 22:55:00,
2013-02-21 18:01:00,51.0,18.1,30.23,ESE,107,1.0,1.0,27,0.00,,,0.00,Wunderground v.1.15,2013-02-21 23:01:00,
2013-02-21 18:05:00,50.7,17.9,30.22,NNW,340,1.0,4.0,27,0.00,,,0.00,Wunderground v.1.15,2013-02-21 23:05:00,
2013-02-21 18:10:00,50.4,16.8,30.23,SW,226,1.0,1.0,26,0.00,,,0.00,Wunderground v.1.15,2013-02-21 23:10:00,
2013-02-21 18:20:00,49.8,17.1,30.22,NNW,344,1.0,5.0,27,0.00,,,0.00,Wunderground v.1.15,2013-02-21 23:20:00,
2013-02-21 18:25:00,49.6,19.4,30.22,ESE,111,1.0,5.0,30,0.00,,,0.00,Wunderground v.1.15,2013-02-21 23:25:00,
2013-02-21 18:30:00,49.4,17.6,30.22,NW,305,1.0,5.0,28,0.00,,,0.00,Wunderground v.1.15,2013-02-21 23:30:00,
2013-02-21 18:40:00,49.1,20.5,30.22,SW,220,1.0,1.0,32,0.00,,,0.00,Wunderground v.1.15,2013-02-21 23:40:00,
2013-02-21 18:50:00,48.7,18.6,30.22,SSW,205,1.0,1.0,30,0.00,,,0.00,Wunderground v.1.15,2013-02-21 23:50:00,
2013-02-21 18:55:00,48.5,19.9,30.22,WSW,253,1.0,5.0,32,0.00,,,0.00,Wunderground v.1.15,2013-02-21 23:55:00,
2013-02-21 19:00:00,48.4,19.1,30.22,SW,230,0.0,5.0,31,0.00,,,0.00,Wunderground v.1.15,2013-02-22 00:00:00,
2013-02-21 19:05:00,48.2,21.1,30.22,SW,230,0.0,5.0,34,0.00,,,0.00,Wunderground v.1.15,2013-02-22 00:05:00,
2013-02-21 19:10:00,48.1,19.6,30.23,SW,224,0.0,5.0,32,0.00,,,0.00,Wunderground v.1.15,2013-02-22 00:10:00,
2013-02-21 19:15:00,47.9,19.4,30.23,SSW,211,1.0,5.0,32,0.00,,,0.00,Wunderground v.1.15,2013-02-22 00:15:00,
2013-02-21 19:20:00,47.7,20.0,30.23,WSW,241,1.0,1.0,33,0.00,,,0.00,Wunderground v.1.15,2013-02-22 00:20:00,
2013-02-21 19:25:00,47.6,19.2,30.23,SSE,166,1.0,5.0,32,0.00,,,0.00,Wunderground v.1.15,2013-02-22 00:25:00,
2013-02-21 19:30:00,47.4,19.7,30.23,SSE,166,0.0,5.0,33,0.00,,,0.00,Wunderground v.1.15,2013-02-22 00:30:00,
2013-02-21 19:35:00,47.3,19.6,30.24,ESE,118,0.0,5.0,33,0.00,,,0.00,Wunderground v.1.15,2013-02-22 00:35:00,
2013-02-21 19:45:00,47.0,19.3,30.25,SSE,161,1.0,5.0,33,0.00,,,0.00,Wunderground v.1.15,2013-02-22 00:45:00,
2013-02-21 19:50:00,46.8,19.9,30.26,South,175,1.0,5.0,34,0.00,,,0.00,Wunderground v.1.15,2013-02-22 00:50:00,
2013-02-21 19:55:00,46.7,19.1,30.25,West,281,1.0,5.0,33,0.00,,,0.00,Wunderground v.1.15,2013-02-22 00:55:00,
2013-02-21 20:01:00,46.6,19.0,30.26,SSW,194,1.0,1.0,33,0.00,,,0.00,Wunderground v.1.15,2013-02-22 01:01:00,
2013-02-21 20:10:00,46.6,19.0,30.25,SE,131,0.0,5.0,33,0.00,,,0.00,Wunderground v.1.15,2013-02-22 01:10:00,
2013-02-21 20:15:00,46.5,19.6,30.25,SE,131,0.0,5.0,34,0.00,,,0.00,Wunderground v.1.15,2013-02-22 01:15:00,
2013-02-21 20:20:00,46.4,20.2,30.25,SE,131,0.0,5.0,35,0.00,,,0.00,Wunderground v.1.15,2013-02-22 01:20:00,
2013-02-21 20:25:00,46.2,24.3,30.25,SE,131,0.0,5.0,42,0.00,,,0.00,Wunderground v.1.15,2013-02-22 01:25:00,
2013-02-21 20:30:00,46.0,26.9,30.25,SE,131,0.0,5.0,47,0.00,,,0.00,Wunderground v.1.15,2013-02-22 01:30:00,
2013-02-21 20:35:00,45.6,24.9,30.26,SW,215,0.0,5.0,44,0.00,,,0.00,Wunderground v.1.15,2013-02-22 01:35:00,
2013-02-21 20:40:00,45.2,26.7,30.27,SW,215,0.0,5.0,48,0.00,,,0.00,Wunderground v.1.15,2013-02-22 01:40:00,
2013-02-21 20:45:00,44.9,26.4,30.29,SW,215,0.0,5.0,48,0.00,,,0.00,Wunderground v.1.15,2013-02-22 01:45:00,
2013-02-21 20:50:00,44.3,28.2,30.32,SSW,194,1.0,1.0,53,0.00,,,0.00,Wunderground v.1.15,2013-02-22 01:50:00,
2013-02-21 20:55:00,43.8,27.3,30.32,SSE,163,1.0,5.0,52,0.00,,,0.01,Wunderground v.1.15,2013-02-22 01:55:00,
2013-02-21 21:00:00,43.4,26.5,30.32,South,184,1.0,5.0,51,0.00,,,0.01,Wunderground v.1.15,2013-02-22 02:00:00,
2013-02-21 21:10:00,43.2,26.7,30.32,SSE,163,2.0,5.0,52,0.00,,,0.01,Wunderground v.1.15,2013-02-22 02:10:00,
2013-02-21 21:15:00,43.0,26.6,30.32,SE,142,2.0,5.0,52,0.04,,,0.02,Wunderground v.1.15,2013-02-22 02:15:00,
2013-02-21 21:20:00,42.9,28.3,30.31,South,177,1.0,1.0,56,0.04,,,0.02,Wunderground v.1.15,2013-02-22 02:20:00,
2013-02-21 21:30:00,42.2,31.3,30.30,NE,49,0.0,5.0,65,0.00,,,0.02,Wunderground v.1.15,2013-02-22 02:30:00,
2013-02-21 21:35:00,41.8,30.9,30.29,ENE,63,0.0,5.0,65,0.00,,,0.03,Wunderground v.1.15,2013-02-22 02:35:00,
2013-02-21 21:40:00,41.2,31.8,30.28,SE,137,0.0,5.0,69,0.00,,,0.03,Wunderground v.1.15,2013-02-22 02:40:00,
2013-02-21 21:45:00,40.6,32.6,30.28,SE,137,0.0,5.0,73,0.07,,,0.04,Wunderground v.1.15,2013-02-22 02:45:00,
2013-02-21 21:50:00,40.2,33.6,30.28,SE,137,0.0,5.0,77,0.07,,,0.04,Wunderground v.1.15,2013-02-22 02:50:00,
2013-02-21 21:55:00,39.9,33.6,30.28,SE,137,0.0,5.0,78,0.05,,,0.04,Wunderground v.1.15,2013-02-22 02:55:00,
2013-02-21 22:01:00,39.6,32.3,30.28,WSW,243,0.0,5.0,75,0.00,,,0.04,Wunderground v.1.15,2013-02-22 03:01:00,
2013-02-21 22:05:00,39.4,32.5,30.29,WSW,243,0.0,5.0,76,0.00,,,0.04,Wunderground v.1.15,2013-02-22 03:05:00,
2013-02-21 22:10:00,39.3,32.4,30.29,WSW,243,0.0,5.0,76,0.00,,,0.05,Wunderground v.1.15,2013-02-22 03:10:00,
2013-02-21 22:15:00,39.2,32.3,30.30,SSW,213,0.0,5.0,76,0.00,,,0.05,Wunderground v.1.15,2013-02-22 03:15:00,
2013-02-21 22:20:00,39.2,31.9,30.29,SW,216,0.0,5.0,75,0.06,,,0.06,Wunderground v.1.15,2013-02-22 03:20:00,
2013-02-21 22:25:00,39.2,31.9,30.30,SW,217,1.0,5.0,75,0.06,,,0.06,Wunderground v.1.15,2013-02-22 03:25:00,
2013-02-21 22:30:00,39.2,32.3,30.30,SW,236,1.0,5.0,76,0.05,,,0.06,Wunderground v.1.15,2013-02-22 03:30:00,
2013-02-21 22:35:00,39.2,31.9,30.30,SW,235,2.0,5.0,75,0.00,,,0.06,Wunderground v.1.15,2013-02-22 03:35:00,
2013-02-21 22:40:00,39.2,31.9,30.29,SW,220,2.0,2.0,75,0.00,,,0.06,Wunderground v.1.15,2013-02-22 03:40:00,
2013-02-21 22:50:00,39.0,32.4,30.30,SW,227,0.0,5.0,77,0.00,,,0.07,Wunderground v.1.15,2013-02-22 03:50:00,
2013-02-21 23:00:00,38.4,32.8,30.32,WSW,244,2.0,2.0,80,0.05,,,0.08,Wunderground v.1.15,2013-02-22 04:00:00,
2013-02-21 23:05:00,38.3,33.0,30.32,SW,236,2.0,3.0,81,0.09,,,0.09,Wunderground v.1.15,2013-02-22 04:05:00,
2013-02-21 23:10:00,38.1,33.4,30.32,SW,221,3.0,3.0,83,0.15,,,0.10,Wunderground v.1.15,2013-02-22 04:10:00,
2013-02-21 23:15:00,37.9,33.5,30.31,WSW,239,1.0,5.0,84,0.17,,,0.12,Wunderground v.1.15,2013-02-22 04:15:00,
2013-02-21 23:20:00,37.7,33.6,30.32,South,178,1.0,1.0,85,0.27,,,0.13,Wunderground v.1.15,2013-02-22 04:20:00,
2013-02-21 23:25:00,37.5,34.0,30.32,South,178,1.0,5.0,87,0.23,,,0.15,Wunderground v.1.15,2013-02-22 04:25:00,
2013-02-21 23:30:00,37.3,33.8,30.32,SSE,162,1.0,1.0,87,0.20,,,0.17,Wunderground v.1.15,2013-02-22 04:30:00,
2013-02-21 23:35:00,37.1,33.6,30.33,SSW,213,1.0,2.0,87,0.15,,,0.19,Wunderground v.1.15,2013-02-22 04:35:00,
2013-02-21 23:40:00,37.0,33.8,30.33,WSW,255,2.0,5.0,88,0.20,,,0.20,Wunderground v.1.15,2013-02-22 04:40:00,
2013-02-21 23:45:00,36.8,33.9,30.32,WSW,257,2.0,5.0,89,0.12,,,0.21,Wunderground v.1.15,2013-02-22 04:45:00,
2013-02-21 23:50:00,36.8,33.9,30.33,WSW,253,1.0,1.0,89,0.18,,,0.23,Wunderground v.1.15,2013-02-22 04:50:00,
2013-02-21 23:55:00,36.6,33.9,30.32,WSW,251,1.0,5.0,90,0.19,,,0.25,Wunderground v.1.15,2013-02-22 04:55:00,